Weather History for Conroe, TX

Change the Weather History Date:

Tuesday, May 28, 2013

  Actual Average Record
Temperature  
Mean Temperature 80 °F -  
Max Temperature 90 °F 87 °F 97 °F (2011)
Min Temperature 71 °F 65 °F 55 °F (2003)
Cooling Degree Days 14    
Growing Degree Days 30 (Base 50)    
Moisture  
Dew Point 69 °F    
Average Humidity 77    
Maximum Humidity 94    
Minimum Humidity 46    
Precipitation  
Precipitation 0.00 in - - ()
Sea Level Pressure  
Sea Level Pressure 29.91 in    
Wind  
Wind Speed 10 mph (SE)    
Max Wind Speed 17 mph    
Max Gust Speed 24 mph    
Visibility 10 miles    
Events      
Averages and records for this station are not official NWS values.
T = Trace of Precipitation, MM = Missing Value Source: NWS Daily Summary

Daily Weather History Graph

Daily Weather History Graph

Search for Another Location

Airport:

Trip Planner

Search our weather history database for the weather conditions in past years. The results will help you decide how hot, cold, wet, or windy it might be!

Date:

Astronomy

May. 28, 2013 Rise Set
Actual Time 6:21 AM CDT 8:16 PM CDT
Civil Twilight 5:54 AM CDT 8:44 PM CDT
Nautical Twilight 5:21 AM CDT 9:16 PM CDT
Astronomical Twilight 4:46 AM CDT 9:51 PM CDT
Moon 11:50 PM CDT (5/28) 10:04 AM CDT (5/28)
Length of Visible Light 14h 49m
Length of Day
13h 55m
Waning Gibbous, 82% of the Moon is Illuminated
May 28
Waning Gibbous
May 31
Last Quarter
Jun 8
New
Jun 16
First Quarter
Jun 23
Full

Hourly Weather History & Observations

Time (CDT) Temp. Heat Index Dew Point Humidity Pressure Visibility Wind Dir Wind Speed Gust Speed Precip Events Conditions
12:53 AM 73.0 °F - 70.0 °F 90% 29.96 in 10.0 mi SSE 8.1 mph - N/A   Clear
1:53 AM 73.0 °F - 69.1 °F 87% 29.94 in 10.0 mi SSE 9.2 mph - N/A   Clear
2:53 AM 72.0 °F - 69.1 °F 91% 29.92 in 10.0 mi SSE 9.2 mph - N/A   Clear
3:30 AM 73.4 °F - 69.8 °F 88% 29.92 in 10.0 mi SSE 11.5 mph - N/A   Mostly Cloudy
3:48 AM 71.6 °F - 69.8 °F 94% 29.92 in 10.0 mi SSE 10.4 mph - N/A   Scattered Clouds
3:53 AM 72.0 °F - 70.0 °F 93% 29.91 in 10.0 mi SE 9.2 mph - N/A   Partly Cloudy
4:53 AM 72.0 °F - 69.1 °F 91% 29.90 in 10.0 mi SSE 10.4 mph - N/A   Clear
5:53 AM 72.0 °F - 69.1 °F 91% 29.91 in 10.0 mi SSE 8.1 mph - N/A   Clear
6:14 AM 71.6 °F - 69.8 °F 94% 29.92 in 10.0 mi SSE 8.1 mph - N/A   Mostly Cloudy
6:42 AM 71.6 °F - 69.8 °F 94% 29.93 in 10.0 mi SSE 8.1 mph - N/A   Partly Cloudy
6:53 AM 72.0 °F - 69.1 °F 91% 29.92 in 10.0 mi SSE 8.1 mph - N/A   Partly Cloudy
7:53 AM 75.0 °F - 70.0 °F 84% 29.93 in 10.0 mi SSE 9.2 mph - N/A   Scattered Clouds
8:50 AM 78.8 °F - 69.8 °F 74% 29.95 in 10.0 mi SSE 12.7 mph - N/A   Mostly Cloudy
8:53 AM 79.0 °F - 70.0 °F 74% 29.94 in 10.0 mi SSE 10.4 mph - N/A   Mostly Cloudy
9:05 AM 80.6 °F 83.9 °F 69.8 °F 70% 29.95 in 10.0 mi SSE 13.8 mph - N/A   Mostly Cloudy
9:53 AM 82.0 °F 84.9 °F 68.0 °F 62% 29.94 in 10.0 mi SSE 17.3 mph - N/A   Clear
10:53 AM 84.0 °F 87.8 °F 69.1 °F 61% 29.93 in 10.0 mi SSE 11.5 mph 18.4 mph N/A   Partly Cloudy
11:53 AM 84.9 °F 88.8 °F 69.1 °F 59% 29.93 in 10.0 mi SSE 13.8 mph 21.9 mph N/A   Clear
12:53 PM 88.0 °F 90.3 °F 66.0 °F 48% 29.91 in 10.0 mi SSE 11.5 mph 21.9 mph N/A   Partly Cloudy
1:53 PM 88.0 °F 89.6 °F 64.9 °F 46% 29.91 in 10.0 mi SSE 12.7 mph 18.4 mph N/A   Scattered Clouds
2:53 PM 88.0 °F 90.7 °F 66.9 °F 49% 29.90 in 10.0 mi SE 13.8 mph - N/A   Scattered Clouds
3:53 PM 84.0 °F 87.0 °F 68.0 °F 58% 29.89 in 10.0 mi SE 15.0 mph 20.7 mph N/A   Mostly Cloudy
4:53 PM 84.0 °F 88.4 °F 70.0 °F 63% 29.87 in 10.0 mi ESE 13.8 mph - N/A   Mostly Cloudy
5:53 PM 81.0 °F 84.4 °F 70.0 °F 69% 29.88 in 10.0 mi SE 16.1 mph 24.2 mph N/A   Mostly Cloudy
6:53 PM 81.0 °F 84.4 °F 70.0 °F 69% 29.87 in 10.0 mi SE 16.1 mph 23.0 mph N/A   Mostly Cloudy
7:53 PM 79.0 °F - 70.0 °F 74% 29.88 in 10.0 mi SE 12.7 mph 20.7 mph N/A   Partly Cloudy
8:53 PM 78.1 °F - 70.0 °F 76% 29.88 in 10.0 mi SE 10.4 mph 17.3 mph N/A   Mostly Cloudy
9:01 PM 78.8 °F - 69.8 °F 74% 29.89 in 10.0 mi SE 12.7 mph 17.3 mph N/A   Mostly Cloudy
9:29 PM 77.0 °F - 69.8 °F 78% 29.90 in 10.0 mi SSE 11.5 mph 18.4 mph N/A   Scattered Clouds
9:53 PM 77.0 °F - 70.0 °F 79% 29.88 in 10.0 mi SE 9.2 mph - N/A   Scattered Clouds
10:01 PM 75.2 °F - 69.8 °F 83% 29.89 in 10.0 mi SE 8.1 mph - N/A   Mostly Cloudy
10:38 PM 75.2 °F - 69.8 °F 83% 29.91 in 10.0 mi SE 5.8 mph - N/A   Partly Cloudy
10:53 PM 73.9 °F - 70.0 °F 87% 29.90 in 10.0 mi SE 3.5 mph - N/A   Partly Cloudy
11:53 PM 73.9 °F - 70.0 °F 87% 29.91 in 10.0 mi ESE 4.6 mph - N/A   Clear